{"data":{"norad_id":63728,"epoch":"2026-05-25T03:49:42.801888Z","epoch_age_seconds":57393,"freshness":"FRESH","line1":"1 63728U 25088E   26145.15952317  .00001601  00000+0  23900-3 0  9994","line2":"2 63728  51.9016  97.4381 0000656  99.8383 260.2654 14.79934764 59248","mean_motion":14.79934764,"eccentricity":6.56e-5,"inclination_deg":51.9016,"raan_deg":97.4381,"arg_perigee_deg":99.8383,"mean_anomaly_deg":260.2654,"bstar":0.000239,"rev_number":5924,"period_min":97.30158619343,"perigee_km":629.07035771047,"apogee_km":629.98976362883,"semimajor_km":7007.6670606696,"source":"CELESTRAK","updated_at":"2026-05-25T13:38:03.925091Z"}}